Tracking 19170 objects as of 23-May-2018
HD Live streaming from Space Station
objects crossing your sky now

COSMOS 2494 (SKRL 756)

Track COSMOS 2494 (SKRL 756) now!
10-day predictions
COSMOS 2494 (SKRL 756) is classified as:


NORAD ID: 39491
Int'l Code: 2013-078B
Perigee: 591.1 km
Apogee: 621.0 km
Inclination: 82.4 °
Period: 96.7 minutes
Semi major axis: 6977 km
RCS: Unknown
Launch date: December 28, 2013
Source: Commonwealth of Independent States (former USSR) (CIS)
Launch site: PLESETSK MISSILE AND SPACE COMPLEX (PKMTR)
aabbcc
Your satellite tracking list
Your tracking list is empty




NASA's NSSDC Master Catalog

Two Line Element Set (TLE):
1 39491U 13078B   18143.18032377  .00000222  00000-0  20550-4 0  9995
2 39491  82.4203 213.6904 0021385 335.8500  24.1713 14.89688027239011
Source of the keplerian elements: AFSPC